Weather History for KBKL - December, 2011

Change the Weather History Date:

Monday, December 26, 2011

  Actual Average Record
Temperature  
Mean Temperature 41 °F -  
Max Temperature 45 °F 35 °F 55 °F (2008)
Min Temperature 37 °F 24 °F 10 °F (2000)
Degree Days  
Heating Degree Days 24    
Moisture  
Dew Point 28 °F    
Average Humidity 61    
Maximum Humidity 70    
Minimum Humidity 48    
Precipitation  
Precipitation 0.00 in - - ()
Sea Level Pressure  
Sea Level Pressure 30.22 in    
Wind  
Wind Speed 14 mph (WSW)    
Max Wind Speed 23 mph    
Max Gust Speed 29 mph    
Visibility 10 miles    
Events      
Averages and records for this station are not official NWS values.
T = Trace of Precipitation, MM = Missing Value Source: NWS Daily Summary

Daily Weather History Graph

Daily Weather History Graph

Search for Another Location

Airport or City:

Trip Planner

Search our weather history database for the weather conditions in past years. The results will help you decide how hot, cold, wet, or windy it might be!

Date:

Astronomy

Dec. 26, 2011 Rise Set
Actual Time 7:51 AM EST 5:02 PM EST
Civil Twilight 7:20 AM EST 5:34 PM EST
Nautical Twilight 6:45 AM EST 6:09 PM EST
Astronomical Twilight 6:11 AM EST 6:42 PM EST
Moon 9:09 AM EST (12/26) 7:30 PM EST (12/26)
Length of Visible Light 10h 13m
Length of Day
9h 10m
Waxing Crescent, 5% of the Moon is Illuminated
Dec 26
Waxing Crescent
Jan 1
First Quarter
Jan 9
Full
Jan 16
Last Quarter
Jan 23
New

Hourly Weather History & Observations

Time (EST) Temp. Windchill Dew Point Humidity Pressure Visibility Wind Dir Wind Speed Gust Speed Precip Events Conditions
12:53 AM 39.9 °F 30.0 °F 30.9 °F 70% 30.21 in 10.0 mi NW 21.9 mph 27.6 mph N/A   Overcast
1:02 AM 39.2 °F 28.7 °F 28.4 °F 65% 30.20 in 10.0 mi NW 23.0 mph 28.8 mph N/A   Overcast
1:09 AM 39.2 °F 29.3 °F 28.4 °F 65% 30.20 in 10.0 mi NW 20.7 mph 28.8 mph N/A   Overcast
1:53 AM 39.0 °F 29.3 °F 28.0 °F 65% 30.24 in 10.0 mi NW 19.6 mph - N/A   Overcast
2:53 AM 39.0 °F 31.0 °F 27.0 °F 62% 30.26 in 10.0 mi NW 13.8 mph - N/A   Overcast
3:53 AM 39.0 °F 31.4 °F 28.9 °F 67% 30.26 in 10.0 mi NW 12.7 mph - N/A   Overcast
4:53 AM 39.0 °F 32.3 °F 28.0 °F 65% 30.28 in 10.0 mi NW 10.4 mph - N/A   Overcast
5:53 AM 39.0 °F 31.4 °F 27.0 °F 62% 30.29 in 10.0 mi West 12.7 mph - N/A   Overcast
6:53 AM 39.0 °F 31.4 °F 26.1 °F 60% 30.33 in 10.0 mi WSW 12.7 mph - N/A   Overcast
7:53 AM 37.9 °F 32.1 °F 28.9 °F 70% 30.34 in 10.0 mi SW 8.1 mph - N/A   Overcast
8:53 AM 37.9 °F 31.5 °F 28.0 °F 68% 30.35 in 10.0 mi WSW 9.2 mph - N/A   Overcast
9:53 AM 39.0 °F 34.0 °F 28.9 °F 67% 30.35 in 10.0 mi WSW 6.9 mph - N/A   Overcast
10:53 AM 39.9 °F 35.1 °F 30.0 °F 68% 30.35 in 10.0 mi West 6.9 mph - N/A   Mostly Cloudy
11:53 AM 42.1 °F 38.4 °F 28.9 °F 60% 30.30 in 10.0 mi West 5.8 mph - N/A   Scattered Clouds
12:53 PM 42.1 °F 38.4 °F 30.0 °F 62% 30.27 in 10.0 mi Variable 5.8 mph - N/A   Partly Cloudy
1:53 PM 45.0 °F 38.5 °F 26.1 °F 48% 30.22 in 10.0 mi SSW 13.8 mph 17.3 mph N/A   Clear
2:53 PM 45.0 °F 39.3 °F 26.1 °F 48% 30.20 in 10.0 mi SSW 11.5 mph - N/A   Clear
3:53 PM 45.0 °F 37.6 °F 27.0 °F 49% 30.20 in 10.0 mi South 17.3 mph 23.0 mph N/A   Clear
4:53 PM 44.1 °F 39.0 °F 27.0 °F 51% 30.16 in 10.0 mi South 9.2 mph - N/A   Clear
5:53 PM 42.1 °F 37.1 °F 27.0 °F 55% 30.13 in 10.0 mi South 8.1 mph - N/A   Clear
6:53 PM 41.0 °F 35.8 °F 27.0 °F 57% 30.15 in 10.0 mi SSW 8.1 mph - N/A   Clear
7:53 PM 41.0 °F 37.1 °F 26.1 °F 55% 30.12 in 10.0 mi South 5.8 mph - N/A   Clear
8:53 PM 39.0 °F 34.8 °F 26.1 °F 60% 30.09 in 10.0 mi South 5.8 mph - N/A   Clear
9:53 PM 39.0 °F 36.8 °F 26.1 °F 60% 30.07 in 10.0 mi South 3.5 mph - N/A   Clear
10:53 PM 39.0 °F - 26.1 °F 60% 30.03 in 10.0 mi Calm Calm - N/A   Clear
11:53 PM 37.4 °F - 26.6 °F 65% 30.00 in 10.0 mi Calm Calm - N/A   Clear